CDT,Max TemperatureF,Mean TemperatureF,Min TemperatureF,Max Dew PointF,MeanDew PointF,Min DewpointF,Max Humidity, Mean Humidity, Min Humidity, Max Sea Level PressureIn, Mean Sea Level PressureIn, Min Sea Level PressureIn, Max VisibilityMiles, Mean VisibilityMiles, Min VisibilityMiles, Max Wind SpeedMPH, Mean Wind SpeedMPH, Max Gust SpeedMPH,PrecipitationIn, CloudCover, Events, WindDirDegrees
2013-4-1,28,14,1,14,7,0,92,72,47,30.28,30.24,30.16,10,10,10,13,6,,0.00,0,,280
2013-4-2,33,17,1,16,7,0,92,70,35,30.34,30.30,30.22,10,10,7,9,2,,0.00,0,Snow,254
2013-4-3,39,22,6,30,18,1,87,70,51,30.32,30.10,29.89,10,10,10,28,8,33,0.00,1,,173
2013-4-4,33,22,12,28,19,10,93,75,48,30.24,30.14,29.96,10,10,10,18,10,24,0.00,0,,314
2013-4-5,37,21,5,27,15,1,93,73,41,30.24,30.09,29.83,10,10,4,14,4,20,0.00,3,Snow,127
2013-4-6,39,34,28,34,28,23,93,84,70,29.83,29.72,29.65,10,8,0,14,6,17,0.19,7,Snow,5
2013-4-7,37,32,28,28,28,25,93,85,60,29.88,29.84,29.80,10,8,0,8,3,,0.27,8,Snow,284
2013-4-8,37,27,17,34,24,10,93,83,64,30.22,29.95,29.80,10,8,2,22,9,28,0.00,7,,1
2013-4-9,30,18,6,18,10,1,85,71,55,30.32,30.27,30.22,10,10,10,23,15,26,0.00,1,,347
2013-4-10,39,26,12,19,16,10,92,62,41,30.33,30.18,30.03,10,10,10,14,5,17,0.00,2,,35
2013-4-11,33,28,24,25,19,14,93,71,51,30.03,29.92,29.86,10,7,0,15,10,24,0.02,7,Snow,60
2013-4-12,35,30,24,27,23,19,93,81,56,29.87,29.85,29.83,10,6,1,14,8,20,0.02,8,Snow,30
2013-4-13,37,28,19,27,19,10,100,73,45,29.94,29.88,29.85,10,8,2,9,2,,0.00,4,Snow,19
2013-4-14,41,28,15,28,20,10,93,74,45,29.94,29.75,29.49,10,8,0,22,8,33,0.04,3,Snow,80
2013-4-15,42,35,28,34,29,27,100,88,65,29.91,29.59,29.40,10,6,1,21,11,30,0.02,8,Snow,360
2013-4-16,37,32,26,28,26,23,100,81,56,30.35,30.17,29.92,10,9,2,12,6,,0.00,8,Snow,321
2013-4-17,42,35,28,36,29,25,93,86,70,30.36,30.25,30.11,10,5,1,9,1,,0.06,8,Snow,180
2013-4-18,37,32,28,32,27,21,100,83,65,30.08,29.90,29.79,10,7,2,23,10,29,0.01,5,Snow,357
2013-4-19,35,28,21,23,17,10,80,64,35,30.02,29.85,29.75,10,10,5,26,17,32,0.00,2,,337
2013-4-20,37,22,6,21,13,3,93,62,33,30.21,30.18,30.08,10,10,10,9,2,,0.00,0,,194
2013-4-21,39,32,26,34,26,16,100,80,64,30.19,30.04,29.95,10,8,2,22,12,29,0.05,6,Rain-Snow,184
2013-4-22,35,28,19,25,22,16,100,79,60,30.31,30.26,30.13,10,10,10,15,6,17,0.00,0,,316
2013-4-23,37,24,10,25,18,9,93,75,48,30.28,30.15,29.99,10,10,7,12,5,,0.00,1,,232
2013-4-24,39,27,15,32,24,16,100,85,69,29.99,29.91,29.86,10,9,2,16,7,14,0.00,3,Rain,213
2013-4-25,41,29,17,28,25,18,100,79,53,30.10,30.03,29.96,10,9,5,15,7,17,0.00,2,,180
2013-4-26,57,44,30,43,34,27,87,72,54,30.09,30.00,29.87,10,10,10,10,7,16,0.00,0,,181
2013-4-27,64,50,37,46,37,30,82,65,45,30.07,29.91,29.74,10,10,10,25,12,32,0.00,0,,183
2013-4-28,60,48,35,46,39,28,81,65,45,29.85,29.71,29.62,10,10,10,16,11,22,0.00,0,,229
2013-4-29,64,45,26,41,31,25,93,62,28,29.87,29.72,29.50,10,10,10,14,3,,0.00,1,Rain,158
2013-4-30,55,44,32,46,37,27,100,73,51,30.03,29.58,29.30,10,10,7,29,12,39,0.13,7,Rain-Thunderstorm,263